RH
5 5 4 5 4 4 4 4 4 4 5 5 5 5 5 5 5 5 5 5 5 6 6 6 6 6 6 5 5 4 3 3 3 3 3 2 2 2 2 2 3 4 8 20 31 29 26 27 29 32 36 43 51 59 70 84 90 83 85 92 89 89 91 92 91 85 83 83 79 78 78 76 73 72 68 64 65 67 66 65 62 59 58 56 53 53 56 54
4 4 4 4 4 4 4 4 4 4 4 4 4 4 4 4 5 5 5 5 5 5 5 6 6 7 7 6 6 5 5 3 3 3 3 3 2 2 2 2 2 3 4 10 25 34 31 29 30 32 34 36 42 52 61 75 89 87 86 93 92 89 91 90 87 85 84 86 85 82 81 79 78 78 76 71 68 65 64 63 59 56 53 48 48 50 51 53
4 4 4 4 4 4 4 4 4 4 4 4 4 4 4 4 4 4 4 4 5 5 5 5 5 6 7 7 6 6 6 4 3 4 4 3 3 2 2 2 2 2 3 5 17 31 31 25 23 26 29 30 34 41 50 63 78 86 86 92 94 89 88 83 81 86 85 82 82 79 79 80 79 79 78 75 71 68 67 64 58 56 51 42 42 45 44 48
4 4 4 4 4 4 4 4 4 4 4 4 4 4 4 4 4 3 4 4 4 4 5 5 5 5 7 7 7 7 7 6 5 4 4 4 4 4 2 2 2 2 2 2 10 22 28 24 19 18 19 22 26 30 40 51 63 78 84 86 90 89 86 82 83 90 87 80 77 73 72 74 71 71 72 73 73 71 69 64 59 55 48 39 37 37 37 42
4 4 4 4 4 4 4 4 4 4 4 4 4 4 4 4 4 4 4 4 4 4 4 5 4 5 5 6 8 7 7 7 6 5 5 4 4 4 3 3 2 2 2 2 4 12 24 29 25 20 17 16 20 26 35 41 49 65 77 81 87 90 86 86 88 91 87 80 76 72 71 69 67 67 68 70 70 69 66 64 63 58 49 43 41 39 35 35
4 4 4 4 4 4 4 4 4 4 4 4 4 4 4 4 4 4 4 4 4 4 4 4 4 4 5 5 6 7 8 8 8 6 6 5 4 4 4 4 3 2 2 2 2 4 13 24 27 27 26 21 21 32 35 31 34 47 63 76 85 87 88 91 91 88 85 82 80 77 72 68 68 67 65 65 65 64 65 66 68 64 57 53 51 45 39 33
6 5 5 5 5 5 4 4 4 4 4 4 4 3 3 3 4 4 4 4 4 4 4 4 4 4 4 5 5 6 7 8 8 7 7 6 5 4 4 4 3 2 2 2 3 2 5 12 23 30 33 29 27 35 35 27 25 30 44 63 78 84 88 91 91 87 84 84 85 80 74 69 68 66 62 62 63 62 64 66 67 64 60 59 55 47 42 36
8 7 8 7 7 7 6 6 6 5 5 4 4 4 4 4 3 3 3 4 4 4 4 4 4 4 4 4 4 5 5 7 8 7 7 7 7 5 5 5 4 4 3 2 2 3 3 5 14 24 31 34 35 39 37 32 29 26 32 46 63 79 85 87 88 85 83 86 85 80 78 74 71 68 66 66 66 66 65 66 64 61 59 58 53 44 42 40
10 10 10 10 9 9 8 8 8 7 7 6 6 6 5 5 4 4 3 3 3 3 4 4 4 4 4 4 4 4 4 5 7 8 7 8 9 7 6 5 5 5 4 3 2 2 3 3 7 15 24 33 40 45 40 37 40 38 34 35 47 65 77 83 84 80 82 88 85 80 81 79 75 70 71 73 68 65 64 66 66 61 56 51 43 34 36 41
10 11 11 10 10 10 9 9 9 8 8 8 7 7 7 7 6 6 5 4 4 3 3 3 3 4 4 4 4 4 4 4 6 7 8 9 10 10 8 6 5 6 5 4 3 2 3 3 4 9 17 26 37 47 42 38 49 49 36 31 37 49 63 75 80 75 79 88 82 78 82 79 74 69 72 74 66 62 63 68 68 56 48 45 36 27 28 37
10 10 11 11 10 10 10 9 9 9 9 8 8 8 8 7 7 7 6 6 5 5 4 4 3 3 3 3 4 4 4 4 5 6 8 9 11 12 10 8 6 6 6 5 4 2 2 2 3 4 9 15 25 39 40 37 51 53 37 33 34 39 50 63 74 75 78 88 82 74 79 78 72 70 72 72 67 66 67 71 66 53 49 46 34 23 24 32
12 12 11 11 11 10 10 10 10 9 9 9 9 8 8 8 8 7 7 7 7 7 6 5 5 4 3 3 3 3 4 4 4 5 6 8 11 13 13 10 8 6 6 6 5 3 2 2 3 3 5 8 15 27 31 34 49 50 37 37 36 32 39 52 64 72 79 87 80 72 80 82 72 67 69 70 69 69 71 73 64 57 58 47 29 22 23 29
13 13 13 13 12 12 12 11 11 10 10 10 9 9 9 9 8 8 7 7 7 7 7 7 7 6 4 4 4 3 3 4 4 4 5 6 8 12 14 12 10 8 7 6 6 5 3 2 2 3 3 5 9 16 22 28 41 45 36 34 36 29 33 52 63 68 78 84 75 73 86 85 67 60 67 71 70 67 69 72 65 62 59 42 26 23 25 28
12 11 12 12 11 11 12 12 11 11 11 11 10 10 10 10 9 8 8 7 7 7 7 7 7 7 6 5 5 4 4 3 4 4 4 4 6 9 13 14 13 11 9 7 6 6 5 4 2 2 2 3 5 8 14 20 30 40 34 26 29 26 32 57 69 68 76 77 68 76 91 84 64 58 65 70 69 66 65 69 70 67 53 34 26 27 29 28
10 9 9 8 8 9 8 9 9 10 10 10 10 10 10 11 10 9 9 8 8 7 7 7 7 7 7 7 6 5 5 4 4 4 4 4 4 6 9 14 15 14 12 9 7 6 6 5 3 2 2 2 3 3 6 11 21 31 28 18 20 24 34 53 65 71 78 73 64 77 93 85 70 66 67 66 67 67 66 68 72 68 48 32 31 32 32 31
9 9 8 8 7 7 7 7 7 7 8 8 9 9 10 10 10 10 10 9 8 8 7 7 7 7 7 7 7 7 6 6 5 4 4 4 4 5 6 9 14 16 15 12 10 7 6 6 5 3 3 2 3 3 3 5 12 20 20 16 15 23 36 42 51 67 78 73 61 70 89 89 81 81 78 71 70 72 70 68 70 66 49 40 40 35 33 33
10 9 8 8 8 7 7 7 7 7 7 7 8 8 9 9 9 9 9 10 9 9 8 8 8 7 7 7 7 7 7 7 6 5 5 5 4 5 5 5 10 15 16 15 13 10 7 6 6 5 3 3 2 3 3 2 6 10 12 13 12 18 31 34 39 54 66 69 62 64 82 90 86 86 85 77 73 74 72 68 68 66 58 52 46 38 34 33
10 9 8 8 8 8 8 8 8 8 8 8 8 8 9 9 9 9 8 9 9 10 10 9 8 8 7 7 7 7 7 7 7 6 6 6 5 4 5 4 6 10 14 16 16 14 11 8 6 6 4 3 3 2 3 2 2 5 7 9 10 14 22 27 33 41 49 57 60 61 75 86 85 86 86 78 72 74 74 69 64 63 65 63 55 46 41 37
10 9 9 9 9 8 9 9 9 9 10 9 9 8 8 8 9 8 8 8 8 9 10 10 9 9 8 7 7 7 7 7 6 7 7 7 6 5 5 5 5 6 9 12 15 16 15 12 8 6 5 4 3 2 2 2 2 4 5 8 11 14 18 24 29 34 40 46 49 53 69 82 82 84 90 82 73 75 77 70 62 63 67 71 67 58 53 48
11 10 9 9 8 8 8 8 8 9 9 10 10 9 8 8 8 8 8 8 8 9 9 9 9 9 9 8 8 7 7 7 7 7 6 7 7 6 6 5 5 5 5 8 12 15 17 14 11 8 7 7 6 4 2 3 3 3 4 6 8 12 17 25 31 32 35 41 43 46 63 78 77 78 89 90 77 70 75 74 68 69 70 73 77 72 67 61
12 11 10 9 9 9 8 8 7 7 8 8 8 8 8 8 8 8 8 8 8 8 8 8 9 9 9 9 8 8 8 7 7 7 6 7 7 7 7 6 5 4 4 6 8 13 15 13 13 12 10 9 8 6 3 3 3 3 4 3 4 6 10 19 27 29 31 34 40 45 55 70 75 74 82 89 79 65 70 78 76 77 75 72 77 80 77 69
12 12 11 11 11 11 11 10 8 8 7 7 7 7 7 7 7 7 7 7 7 7 7 7 7 8 8 9 9 8 8 8 7 7 7 7 6 7 7 7 7 6 5 5 5 8 9 10 16 16 13 11 9 8 5 3 3 3 3 3 3 3 7 16 20 25 29 27 34 41 46 60 72 76 76 78 78 66 65 79 84 84 81 74 76 83 81 74
14 14 14 14 13 13 12 11 9 8 8 7 6 6 6 6 6 6 6 6 6 6 6 5 5 6 7 8 8 8 8 8 8 7 7 7 6 6 6 7 7 7 6 5 5 5 5 10 20 19 15 13 11 9 8 5 3 3 3 3 4 2 6 16 21 25 28 26 33 40 38 47 61 70 67 64 72 68 62 76 85 84 84 75 72 78 78 75
16 16 14 14 13 12 11 10 8 7 7 6 5 4 4 5 4 4 5 4 4 5 5 4 4 4 5 5 6 7 8 7 7 7 7 7 6 6 6 6 7 7 8 6 6 5 4 9 18 20 19 17 12 10 10 7 4 3 3 3 3 4 4 12 22 27 29 26 33 42 37 36 48 56 55 56 64 64 58 68 78 79 77 66 60 67 67 66
16 14 13 12 11 10 9 8 7 6 5 5 4 4 3 3 3 3 3 3 3 3 3 3 3 3 3 3 4 5 6 7 7 7 7 6 6 6 6 6 6 7 8 8 8 6 5 7 10 16 22 22 16 12 11 9 6 3 3 3 3 4 4 7 19 29 35 31 27 37 36 28 36 45 47 52 56 55 53 63 76 78 70 55 52 63 62 58
14 13 11 10 9 8 7 6 5 5 5 4 4 4 4 4 4 4 4 4 4 3 3 3 3 3 3 3 3 3 4 5 6 6 6 6 6 6 6 6 6 6 7 9 10 8 7 6 6 10 20 24 20 15 13 11 9 5 3 4 3 4 5 5 13 25 36 36 27 30 32 25 28 36 40 45 47 47 49 61 77 78 68 55 52 61 61 58
12 11 9 8 7 6 5 5 5 5 6 6 6 6 7 7 7 7 7 6 5 5 5 4 4 5 4 4 3 3 3 3 4 5 5 6 6 6 6 6 5 6 6 8 9 8 8 8 5 6 14 23 22 17 16 13 10 8 4 4 3 3 5 4 9 17 27 37 35 30 27 21 23 29 33 36 37 41 45 58 74 74 67 59 55 63 64 60
10 8 7 6 6 5 5 6 6 7 8 8 7 8 8 8 8 8 7 7 7 7 7 5 5 6 5 5 5 4 4 4 4 4 5 5 5 5 5 6 5 5 6 6 7 8 10 11 7 5 9 18 23 22 21 16 12 11 7 5 4 4 4 4 6 11 20 33 37 34 27 16 16 25 31 30 30 34 39 53 68 68 65 61 60 67 66 62
7 6 6 5 6 6 7 7 8 9 9 8 7 8 8 8 7 8 8 9 10 10 9 8 8 7 6 6 5 5 5 5 5 5 6 6 6 6 5 5 5 5 5 6 6 7 11 14 10 7 6 10 23 30 26 19 15 13 11 7 5 4 4 4 5 6 14 23 26 31 31 16 8 20 30 26 25 29 36 52 64 65 63 62 67 70 65 62
6 6 6 6 7 7 7 8 8 9 10 10 10 10 10 10 10 10 9 11 12 11 10 10 9 8 7 6 5 5 6 6 6 7 8 8 8 8 7 6 6 5 5 5 6 6 10 14 12 9 6 6 20 34 32 24 18 15 14 11 8 5 4 4 4 5 9 12 14 24 32 20 5 13 25 21 21 28 38 53 63 63 62 65 70 69 61 59
5 6 6 6 7 7 8 8 8 9 11 12 13 14 14 13 12 10 9 10 11 10 10 11 11 10 8 8 7 6 6 5 6 7 7 8 9 9 9 8 7 7 6 5 6 6 8 13 13 10 8 6 13 30 36 30 22 17 15 14 11 7 4 4 4 4 5 5 7 15 27 22 5 6 18 16 18 30 41 53 61 62 64 70 73 69 62 58
5 5 6 6 7 7 7 7 7 8 10 13 15 16 16 15 13 10 10 11 10 9 9 11 11 11 11 11 11 10 8 7 6 6 6 7 7 8 9 9 10 11 9 6 5 6 6 9 13 13 12 9 9 21 35 35 26 18 15 15 13 9 5 4 4 3 3 2 4 10 19 18 3 3 14 14 16 30 43 55 62 64 68 74 75 72 69 65
4 4 5 5 6 7 7 6 6 7 9 12 15 16 17 16 15 13 12 12 10 9 9 9 9 9 10 11 11 12 11 10 9 8 7 7 6 7 8 8 9 12 13 11 6 5 6 8 12 15 15 13 10 12 26 36 31 21 16 15 14 12 7 4 3 3 3 2 2 7 13 10 1 2 11 12 14 28 42 55 65 68 71 76 76 72 71 72
4 4 5 5 5 6 6 6 6 7 10 14 16 17 17 16 15 14 14 13 10 9 8 8 9 9 9 9 10 10 10 9 9 9 8 8 8 7 7 7 7 9 12 16 13 7 5 7 10 14 15 14 12 10 16 31 37 28 20 17 15 14 9 5 4 2 3 3 2 5 8 5 0 1 9 12 14 26 40 53 66 71 71 76 80 74 67 69
4 4 5 4 5 6 6 6 6 8 13 16 18 19 18 17 16 17 17 13 10 9 9 10 10 11 12 12 12 13 14 13 12 10 9 8 9 9 8 7 7 7 8 13 18 13 6 6 8 12 15 15 14 12 11 24 40 38 28 21 16 14 12 8 5 3 3 3 2 4 4 3 2 1 7 13 15 24 37 50 64 72 73 77 81 74 62 62
4 4 4 5 5 5 5 6 9 12 15 16 17 18 19 22 24 24 22 16 11 10 11 11 12 13 16 17 18 19 18 18 18 16 13 10 9 9 9 9 8 8 7 8 14 16 11 6 6 12 18 18 17 16 12 18 33 40 35 25 16 14 15 12 8 5 4 3 2 3 3 2 2 1 5 13 15 21 35 51 64 72 76 78 79 74 64 59
5 5 5 5 5 6 7 11 14 15 15 15 17 18 20 25 30 32 30 21 14 12 12 14 15 17 19 21 22 23 22 20 20 19 19 16 12 10 9 10 9 9 10 9 9 13 14 9 5 9 17 20 20 19 16 15 23 37 40 29 20 19 19 16 11 6 5 4 2 3 3 2 2 1 4 12 17 20 33 53 67 73 76 76 76 75 68 62
5 5 5 6 8 12 14 15 16 17 19 21 22 22 23 26 31 35 35 29 21 16 16 18 20 22 25 26 27 27 26 23 21 20 21 21 18 14 11 10 10 11 13 13 10 10 13 14 9 7 14 22 22 22 23 18 18 33 42 35 29 26 21 15 12 8 5 5 3 3 3 2 2 2 2 9 17 20 30 51 67 72 74 72 73 73 69 65
6 7 9 13 15 16 17 19 22 25 28 29 29 29 30 30 32 33 34 31 26 22 21 22 25 26 28 29 29 28 27 26 26 25 25 24 21 18 15 11 10 12 14 17 16 10 9 14 15 9 11 21 26 26 27 24 19 26 41 47 41 31 23 18 14 11 8 6 4 4 3 2 2 2 2 6 14 20 29 46 63 70 72 70 69 70 69 65
13 16 18 19 18 20 24 28 31 33 34 35 36 37 37 36 35 33 31 30 28 28 27 28 30 31 32 34 35 34 34 33 33 31 29 27 24 20 18 15 12 11 13 17 20 15 8 10 17 15 11 19 30 30 27 29 25 23 39 56 52 38 27 21 17 14 11 8 6 5 4 3 3 2 2 4 10 17 25 43 61 69 70 69 67 68 70 67
20 24 23 22 24 29 32 33 33 34 36 39 41 42 43 42 41 41 41 41 41 41 42 44 46 47 46 46 44 42 39 36 33 31 28 26 24 20 18 18 16 13 13 16 21 20 11 6 13 21 17 15 25 31 28 32 33 25 34 51 51 42 33 24 18 15 11 9 8 6 5 4 3 3 2 3 9 17 23 39 60 68 65 66 65 65 67 67
22 26 29 32 34 35 34 30 30 31 33 38 42 44 46 48 51 53 54 55 55 56 57 56 55 52 48 44 40 36 32 30 27 25 24 22 21 20 18 17 18 16 14 16 22 24 17 7 7 19 24 16 20 34 37 40 42 33 31 41 45 45 39 27 19 15 12 10 9 7 6 4 3 3 3 2 7 17 22 31 52 64 61 58 59 61 63 65
24 29 35 39 37 33 30 28 28 29 32 36 40 44 47 51 56 58 57 57 57 55 54 51 48 43 39 35 33 32 33 35 34 30 28 25 23 22 20 19 19 20 19 20 24 26 20 12 5 12 25 22 22 38 44 46 53 44 31 34 41 45 44 32 21 17 14 12 11 9 7 5 4 3 3 2 5 14 20 24 37 50 49 44 50 58 60 61
28 30 33 35 34 30 27 27 26 28 31 34 38 43 45 48 52 52 51 51 49 48 45 41 37 34 34 37 41 47 55 62 64 59 51 44 39 38 38 35 30 29 29 28 31 31 23 16 7 5 20 29 34 49 56 57 64 56 36 31 38 44 47 40 29 22 17 13 12 10 7 6 5 4 3 3 2 7 15 20 27 36 40 42 51 61 62 62
26 25 26 27 30 31 29 27 26 28 32 34 37 39 39 41 44 45 46 46 45 42 37 34 38 45 52 61 68 74 78 81 83 79 73 70 70 69 65 59 49 43 42 40 40 37 26 18 12 4 11 28 40 51 56 57 64 60 41 32 38 45 47 45 38 29 22 15 12 11 8 6 6 4 4 3 2 3 8 14 22 32 42 49 57 64 64 65
23 23 23 21 23 27 27 26 27 30 34 36 37 38 37 37 39 42 45 46 41 34 31 41 58 70 76 84 91 94 92 89 87 84 84 88 90 80 64 52 46 43 46 48 47 43 32 20 15 7 6 21 37 43 48 55 61 58 44 33 36 43 45 45 43 35 26 19 13 12 10 6 6 6 4 4 3 3 4 8 16 28 40 49 58 62 63 67
22 23 23 20 20 22 22 23 27 31 35 38 38 39 39 40 43 47 47 41 31 28 39 60 77 84 88 92 98 101 96 89 85 84 89 96 94 79 58 43 37 32 35 42 45 44 36 24 17 11 4 14 34 43 50 64 68 59 48 37 34 38 40 42 44 38 29 22 16 14 11 7 7 8 5 4 4 3 3 5 11 23 33 41 49 56 61 66
23 22 21 21 22 23 23 25 28 30 34 37 39 40 44 47 51 50 42 30 26 35 54 77 90 93 96 97 99 101 95 87 86 90 95 99 97 86 69 53 42 31 26 30 35 39 38 28 19 14 7 9 29 43 49 65 75 65 53 45 38 36 35 34 38 38 31 25 20 16 13 10 8 8 7 5 4 3 3 3 7 17 27 33 41 50 58 62
24 23 22 23 24 25 25 26 28 32 35 38 41 45 49 53 54 46 32 24 31 48 68 87 98 100 101 100 99 100 97 93 95 97 96 95 96 91 78 62 50 41 31 25 26 31 36 31 22 17 12 7 21 41 48 63 82 74 56 52 49 42 33 28 32 36 32 27 23 19 16 13 10 9 7 5 5 3 3 3 5 11 20 27 36 44 50 53
26 25 24 25 27 27 27 28 30 34 38 40 46 51 54 58 52 37 25 27 40 61 79 91 99 100 99 98 97 98 100 99 101 102 97 91 90 86 77 66 55 46 38 29 24 25 29 31 26 20 16 8 13 36 51 64 83 81 61 55 55 45 33 27 29 35 36 31 26 23 20 16 11 10 8 6 6 4 3 3 4 7 14 21 27 31 33 35
29 29 27 27 30 30 31 32 33 37 41 44 51 57 59 58 45 28 25 34 47 63 76 85 94 95 90 88 91 92 91 88 86 87 84 79 78 76 70 64 56 48 42 35 28 24 23 26 25 21 18 12 10 29 51 62 77 83 67 54 52 45 32 27 28 33 37 36 32 29 24 18 13 11 8 7 6 5 4 3 4 6 10 15 18 18 18 19
32 33 31 30 33 33 34 36 37 39 43 47 53 59 59 51 36 27 30 36 43 54 63 73 84 83 75 75 80 77 72 70 68 65 62 57 58 59 56 54 51 46 42 37 31 27 24 21 22 21 19 15 10 21 44 59 71 79 68 52 48 41 30 28 32 33 34 38 37 32 25 19 15 11 7 6 7 5 4 4 4 5 7 8 10 10 10 10
Wind_Speed
23 23 23 23 23 23 23 23 22 22 22 21 21 20 20 19 19 18 16 15 14 14 13 12 12 12 11 10 10 12 13 13 12 10 10 12 12 13 15 15 15 14 14 13 10 11 14 15 16 17 17 17 16 14 14 14 14 14 14 13 14 14 14 14 13 12 11 11 12 12 12 12 11 11 11 12 12 11 10 9 8 8 8 8 7 7 7 4
24 24 24 24 24 24 25 24 24 24 24 24 23 23 22 22 21 21 19 17 16 15 15 14 13 13 13 12 10 11 13 15 13 11 13 13 12 12 14 15 16 16 16 16 15 15 16 17 18 19 19 19 19 17 15 15 15 15 14 14 15 14 14 15 13 12 11 11 12 13 13 13 12 12 12 12 12 11 9 8 8 8 9 9 9 9 9 8
24 24 25 24 24 24 25 25 25 25 24 24 25 25 24 23 23 23 22 20 19 18 17 17 15 14 14 14 13 12 13 15 14 13 14 14 13 12 13 14 16 17 17 18 20 20 20 20 21 22 22 22 21 20 18 17 17 16 16 15 16 15 15 14 13 13 12 12 13 14 14 15 14 13 13 12 12 10 9 7 7 8 8 7 9 10 10 10
24 24 24 24 24 24 24 24 24 25 25 25 25 25 25 25 24 24 24 23 22 20 20 20 18 16 15 16 15 14 14 14 14 14 16 16 15 14 13 14 16 18 18 17 19 22 21 20 19 19 20 21 21 21 20 19 19 18 18 18 17 16 15 14 14 13 13 13 13 13 14 16 15 14 13 11 10 9 8 7 7 7 7 7 8 9 10 11
23 23 23 24 24 24 24 24 24 24 25 25 25 25 25 25 25 25 25 24 23 22 22 22 21 19 17 17 17 17 16 15 15 16 18 18 17 16 15 16 17 18 19 18 18 21 22 19 17 16 17 17 18 20 21 21 21 20 20 19 18 16 15 16 16 14 13 13 12 13 14 15 14 13 13 12 11 9 9 8 7 7 7 7 7 7 9 10
22 22 21 22 23 23 23 23 23 24 24 25 25 25 26 25 25 26 25 25 25 24 24 23 24 23 21 20 18 18 18 16 17 18 19 19 19 18 17 17 17 17 18 19 18 19 20 21 18 16 16 16 17 20 22 22 22 22 21 20 19 18 16 16 15 16 15 13 12 13 14 14 14 13 13 13 12 11 10 9 8 8 8 9 8 7 8 10
21 21 20 21 21 22 21 21 22 22 23 23 24 25 25 26 26 26 26 26 26 25 25 24 24 25 24 23 21 21 20 18 19 19 19 20 20 19 18 19 18 16 17 19 20 18 18 20 20 18 17 17 17 21 22 20 20 21 22 22 22 20 19 17 15 16 16 15 14 14 14 14 14 13 12 12 12 11 10 9 9 9 10 10 9 7 7 9
20 20 20 20 21 21 21 21 21 22 22 22 22 23 24 25 25 26 26 26 27 26 26 26 25 25 25 26 25 24 23 21 22 21 19 19 19 20 20 20 19 18 18 20 22 22 21 21 22 22 20 18 19 22 24 22 20 20 22 24 24 23 22 19 17 17 16 17 17 16 15 14 13 11 11 11 11 10 9 8 8 9 9 9 8 8 7 8
20 21 21 21 21 22 22 22 22 22 22 22 22 21 22 23 24 25 25 26 26 26 26 26 26 26 26 27 27 28 26 24 23 22 21 20 19 20 21 22 21 20 20 21 21 23 23 22 23 25 24 23 23 24 26 24 23 23 24 25 25 25 24 22 20 18 18 18 17 15 14 14 14 12 12 13 12 11 10 8 8 9 8 7 8 8 9 9
21 22 23 23 23 23 23 23 23 23 23 23 23 22 22 22 23 24 25 25 25 25 26 27 27 27 27 28 28 29 29 27 25 24 23 22 21 21 22 24 23 22 22 21 20 21 24 26 28 29 29 29 28 27 26 25 26 27 26 25 26 26 24 23 21 19 17 17 16 15 15 15 14 12 13 14 13 12 11 9 8 9 8 7 7 8 9 11
23 24 25 25 25 25 25 25 25 25 25 24 24 24 24 23 24 25 25 25 24 24 25 26 27 28 28 28 28 29 30 29 28 26 25 24 24 24 23 24 25 24 24 23 22 24 27 30 31 32 31 31 30 29 27 26 28 31 28 25 25 25 24 23 22 20 17 17 17 16 16 15 13 13 14 14 13 11 10 9 9 9 8 7 7 8 9 11
26 26 27 27 28 28 28 28 28 28 28 27 27 26 26 25 25 26 26 25 24 24 24 25 26 27 29 28 28 29 31 31 30 28 28 27 26 26 25 25 25 26 25 25 26 27 28 30 32 32 32 31 31 31 29 29 32 33 29 26 25 26 24 23 23 22 19 19 18 16 15 14 14 14 14 14 14 13 11 10 10 10 8 7 8 9 10 12
27 27 27 28 29 29 30 30 31 31 31 30 30 30 29 29 28 27 27 26 26 25 24 24 25 27 28 28 28 29 30 30 30 31 30 29 29 29 28 26 26 26 27 28 28 28 27 28 31 33 33 32 33 32 30 31 34 34 31 28 27 26 25 24 25 24 22 22 19 18 17 16 16 14 13 14 15 14 13 12 11 10 9 9 9 10 11 13
27 26 27 27 28 29 30 31 31 32 33 33 33 33 33 33 32 31 29 29 28 27 26 25 26 27 28 28 28 28 28 29 30 32 32 32 31 31 31 29 28 28 28 30 30 29 28 28 30 33 34 33 34 33 30 32 34 35 33 29 26 25 24 25 26 26 25 24 21 20 20 19 16 13 13 15 16 15 13 12 11 10 10 10 11 12 13 14
26 26 26 27 27 28 29 30 31 32 33 33 34 34 35 35 35 34 33 32 31 30 28 27 27 27 27 27 28 29 28 28 29 31 32 33 34 34 33 32 31 30 30 31 31 31 30 30 30 30 31 33 34 33 31 32 34 35 34 29 25 23 23 25 26 26 26 26 24 22 22 21 17 14 13 14 16 16 13 12 12 11 11 11 11 12 13 12
27 27 27 28 28 28 29 30 31 32 33 33 34 35 35 36 37 37 36 35 34 33 32 31 30 29 28 28 28 29 29 29 29 30 31 33 35 36 36 35 34 33 32 31 32 33 33 31 31 30 31 33 34 34 32 33 35 36 34 28 23 21 23 25 26 26 27 27 26 24 23 23 21 17 16 15 17 17 15 14 13 13 12 11 11 11 10 9
30 30 30 30 30 30 30 30 31 32 33 33 34 35 36 37 37 38 38 37 37 36 35 34 33 32 31 30 30 30 30 30 31 31 30 32 35 37 38 38 37 36 34 34 33 33 33 32 31 31 32 32 33 35 35 34 35 34 31 26 23 21 24 25 25 27 28 28 27 26 24 23 22 20 18 17 18 19 17 16 16 15 14 13 11 9 8 9
32 32 32 33 33 33 32 32 32 32 33 34 34 35 36 37 38 38 38 39 38 38 38 37 36 35 35 33 32 32 31 31 32 32 31 32 34 37 39 40 40 40 38 37 36 34 34 33 33 33 33 32 31 33 33 32 31 30 28 25 23 22 23 25 26 27 28 29 29 28 25 23 23 21 19 19 19 19 19 19 18 16 15 14 11 10 9 9
34 34 34 35 36 36 35 35 34 34 34 34 36 36 37 37 38 39 39 39 39 40 40 39 39 39 38 37 36 35 35 34 33 33 33 33 34 36 39 41 43 43 42 40 38 36 34 34 35 34 31 28 27 28 29 29 29 30 29 28 27 26 24 25 27 27 27 30 30 29 26 25 25 22 20 20 19 20 20 20 18 15 14 13 12 11 11 11
35 36 37 38 38 39 38 38 37 37 36 37 37 38 39 39 39 41 41 40 40 40 41 41 41 41 41 40 39 38 38 38 36 34 34 34 35 36 38 41 43 45 44 42 40 39 37 36 34 30 26 26 26 27 27 28 29 32 32 31 30 29 27 27 29 30 29 30 29 29 29 28 28 25 22 22 21 20 20 19 18 15 14 14 13 13 13 13
38 39 40 41 41 41 41 41 41 40 40 40 41 41 41 41 40 41 42 42 41 41 41 42 42 43 43 43 42 41 41 42 40 38 36 35 36 37 38 40 42 45 44 43 43 42 42 39 31 25 27 29 30 29 28 28 29 33 34 33 32 31 29 28 30 30 31 32 30 29 30 29 28 27 26 25 23 21 20 20 19 17 16 15 15 14 15 14
40 41 42 43 43 44 44 44 44 44 44 44 44 44 44 44 43 42 42 43 43 43 42 43 43 44 45 45 45 44 44 44 44 42 40 38 38 39 39 40 41 43 44 45 47 46 45 39 28 25 30 33 32 32 30 29 29 33 35 34 33 31 29 29 29 30 31 32 31 31 31 29 29 30 29 27 24 22 22 23 23 21 19 18 17 16 16 12
41 41 42 43 44 44 44 45 45 45 45 44 44 44 44 44 43 43 42 42 44 44 44 44 44 45 45 46 47 47 47 47 47 46 44 42 41 41 40 40 40 42 44 47 48 48 46 37 28 29 34 34 35 34 32 31 31 33 35 34 34 31 29 31 31 32 33 32 32 33 33 32 32 33 31 28 25 25 25 27 28 26 24 22 22 21 18 15
40 40 41 42 43 43 43 44 44 43 43 41 40 39 39 39 39 39 39 39 40 42 43 44 44 44 46 47 48 49 50 49 49 48 47 45 45 44 42 42 42 43 44 45 47 48 46 38 33 36 37 35 37 36 34 33 32 33 34 33 32 31 30 32 33 34 34 33 33 35 36 35 35 34 32 28 27 27 27 28 29 28 27 25 24 23 20 18
40 40 41 42 42 42 41 41 39 38 37 36 34 33 33 33 32 32 33 34 35 36 38 40 41 42 44 45 46 49 51 51 51 50 49 48 47 46 45 44 44 45 45 45 46 47 46 41 39 42 40 37 38 38 36 34 33 34 33 31 30 31 32 32 34 36 36 35 35 36 39 38 36 35 33 31 30 28 28 29 29 29 29 26 23 21 19 17
40 40 40 40 40 39 37 34 32 32 32 32 31 30 29 29 29 28 29 31 32 32 33 36 38 38 40 42 43 46 49 50 51 50 50 49 48 47 47 47 47 47 46 47 48 47 45 42 43 46 44 41 41 40 39 37 36 35 31 29 31 33 34 34 35 37 39 38 36 38 41 40 38 38 36 34 33 31 30 31 30 30 29 25 22 21 19 16
38 38 37 36 34 33 31 28 27 27 27 28 29 29 29 29 28 27 28 29 29 29 29 31 32 33 35 36 39 43 46 48 50 50 49 49 49 49 48 48 48 49 49 50 51 48 44 42 45 49 47 45 43 41 39 37 37 33 29 30 34 35 36 36 36 39 40 39 38 40 43 41 40 40 38 37 35 34 34 34 32 31 29 25 23 22 19 16
35 34 32 31 29 28 26 25 25 25 25 27 27 28 29 29 28 27 28 29 27 25 26 27 27 28 29 28 31 36 41 45 47 47 47 47 48 48 48 49 49 50 51 52 53 50 43 41 45 50 50 47 44 39 37 37 38 33 31 35 35 35 37 37 39 41 39 40 43 43 44 44 41 38 38 39 38 37 36 34 33 32 28 25 24 23 21 19
32 29 27 26 26 25 24 24 25 25 27 29 29 30 30 30 30 29 30 30 28 25 26 26 25 26 25 23 24 28 33 38 42 43 43 44 45 46 47 50 50 51 52 53 54 52 46 43 46 50 52 49 44 40 39 41 40 35 35 37 35 36 39 40 43 42 41 46 48 46 46 46 40 37 39 40 38 37 35 33 33 32 29 27 26 25 24 22
28 25 24 23 23 24 24 25 26 27 29 30 30 31 31 31 31 30 31 30 28 27 27 27 27 26 26 25 24 25 27 31 34 37 38 39 41 43 45 48 51 51 53 54 55 54 49 47 48 50 52 51 47 44 43 43 41 38 39 40 37 39 42 43 46 45 46 53 53 47 46 48 40 38 41 40 35 34 34 33 33 32 30 29 28 28 27 25
27 25 24 23 23 24 25 27 29 29 30 31 31 31 31 31 30 30 31 30 30 29 28 28 28 27 27 28 27 27 26 27 29 32 34 35 36 38 41 45 49 51 53 55 56 56 53 50 50 51 52 52 51 50 48 45 43 43 45 44 41 41 43 46 48 50 54 58 54 47 46 50 41 37 40 38 34 35 35 34 34 33 31 30 29 29 28 26
29 28 27 26 25 25 26 28 30 31 32 33 32 32 32 32 31 31 31 31 31 29 27 27 27 27 27 28 29 29 29 29 29 30 32 33 34 35 37 41 45 48 52 55 56 57 55 52 52 53 53 54 54 53 52 49 48 48 50 49 46 44 46 49 52 55 58 59 55 47 48 52 41 33 38 39 36 37 35 34 35 35 33 32 31 29 28 27
31 31 30 29 28 27 28 29 30 32 33 34 34 33 32 33 32 31 30 31 32 30 28 28 27 26 27 27 28 29 30 31 31 32 33 34 34 33 34 36 40 44 48 52 55 57 57 55 55 56 56 56 55 55 55 53 51 52 54 53 50 48 50 52 54 57 58 58 55 48 49 54 41 31 37 39 35 34 34 35 38 37 35 34 33 31 29 29
33 33 32 31 29 28 29 30 31 33 35 34 34 34 33 33 32 31 31 31 32 30 29 28 27 26 26 27 28 28 29 31 32 33 35 36 37 36 35 34 36 40 43 47 52 57 59 58 58 59 59 57 56 55 56 55 53 53 53 53 52 50 49 50 52 55 57 59 57 50 51 55 43 31 33 35 35 36 36 37 39 39 37 36 36 34 31 30
34 33 33 31 28 27 29 32 33 35 35 34 34 34 33 33 32 31 31 31 31 31 30 30 29 29 29 29 30 30 31 33 34 35 36 38 39 40 39 37 36 37 40 44 49 55 60 60 59 60 60 58 57 57 56 57 56 54 53 54 55 51 48 48 49 51 53 57 57 54 54 54 41 28 30 35 37 38 37 38 39 39 37 37 38 37 33 32
34 33 31 28 26 26 30 33 34 35 34 34 33 33 33 33 32 32 32 32 32 33 33 33 33 33 33 33 33 34 35 36 36 37 39 40 40 41 42 42 40 38 38 42 46 51 58 61 60 61 61 59 59 58 56 57 58 57 56 56 55 51 48 50 50 50 52 55 58 57 54 51 39 27 30 36 38 38 38 39 40 39 38 38 39 38 36 34
32 30 28 26 27 29 31 33 34 34 33 33 33 33 32 32 32 32 33 34 35 36 36 37 37 36 36 36 37 37 38 39 40 40 40 42 43 43 42 42 43 42 40 41 43 47 54 60 61 62 62 61 60 59 57 56 58 58 57 56 54 52 52 53 53 53 53 55 59 57 52 49 41 31 32 36 38 39 39 40 41 40 40 39 39 39 37 35
28 27 26 27 29 31 32 33 33 32 32 32 32 31 31 31 31 31 33 35 37 38 39 39 39 39 40 40 40 40 41 42 43 43 43 44 45 45 43 43 43 44 43 41 42 45 50 57 61 62 62 61 60 60 58 56 57 58 58 56 56 55 56 56 57 56 55 57 59 56 52 48 42 34 32 35 37 38 39 40 41 41 41 39 38 38 37 36
26 26 27 29 30 31 31 31 31 31 31 31 31 31 30 30 31 31 33 35 37 39 40 41 41 42 43 43 44 44 44 45 46 46 46 46 47 46 46 46 44 44 45 43 43 44 47 54 60 62 62 62 61 61 60 57 57 58 58 58 58 58 57 56 57 57 55 57 57 54 51 47 41 33 31 33 36 37 39 41 42 41 40 39 37 37 37 37
26 27 29 29 30 30 29 29 29 29 29 29 29 30 30 30 31 32 33 35 37 39 41 42 43 44 45 46 46 46 46 46 47 47 48 48 48 48 48 48 47 46 46 45 44 44 46 51 57 60 61 62 63 62 61 58 57 59 60 61 60 59 58 57 58 57 55 56 56 53 50 46 39 34 31 31 35 38 39 41 42 41 40 38 38 38 38 38
28 29 29 29 29 29 29 28 27 27 27 27 28 29 29 30 32 33 35 36 38 39 41 42 43 44 45 45 44 44 44 45 46 46 48 49 50 50 51 50 49 48 47 47 46 45 46 49 54 58 60 62 64 63 61 59 59 60 62 63 62 61 60 60 60 59 58 58 57 54 52 45 38 36 34 31 33 37 38 40 41 41 39 38 38 38 39 38
28 28 27 27 28 27 27 27 26 26 27 27 28 28 29 31 32 34 35 37 38 39 39 40 41 42 42 43 43 43 43 44 46 46 48 49 50 52 53 52 52 51 50 49 48 47 47 49 52 55 57 60 62 62 61 60 59 61 62 64 63 63 63 62 62 61 59 59 58 56 55 47 38 37 35 32 33 37 38 40 41 40 39 37 37 37 38 38
27 27 26 25 25 25 25 26 26 27 27 28 28 28 29 31 32 33 34 36 37 37 38 39 40 41 41 41 41 40 40 40 42 43 45 47 49 51 53 53 54 53 52 51 50 49 48 48 50 52 54 56 59 61 62 60 59 61 63 64 65 65 64 63 63 62 60 60 59 58 57 47 38 37 36 33 33 37 38 39 41 41 40 38 37 38 38 37
26 26 24 22 22 23 25 26 27 28 29 29 28 28 29 30 30 31 33 35 36 37 38 39 39 38 38 37 35 33 32 32 32 34 36 40 43 45 47 49 51 52 52 51 51 50 49 49 49 50 51 53 55 59 62 61 60 61 63 64 65 66 66 63 63 63 62 61 59 58 58 47 37 36 36 33 33 36 38 39 40 41 41 40 39 39 37 36
25 24 22 21 22 23 25 26 28 30 30 30 29 29 29 30 30 32 34 35 37 37 36 34 32 30 29 29 28 26 25 25 25 25 26 30 34 37 37 39 43 47 49 50 51 50 49 50 49 49 51 52 55 60 64 64 62 61 63 64 65 67 66 65 64 64 63 62 58 58 58 47 36 34 35 34 34 35 37 39 39 40 42 42 41 40 38 36
23 23 23 24 24 25 26 28 30 31 31 30 30 30 30 31 32 34 36 37 36 33 30 24 20 18 19 20 21 21 22 22 22 22 22 24 28 30 29 30 34 39 44 47 49 50 50 50 50 50 51 51 54 60 65 65 64 63 64 65 66 67 67 67 66 65 64 62 59 58 56 45 36 34 35 35 36 36 37 38 39 40 42 43 43 42 40 39
23 23 24 26 26 26 27 29 31 32 32 31 30 30 31 32 34 36 37 35 31 26 21 15 13 13 15 17 19 20 21 22 23 23 23 23 25 26 24 25 28 31 37 42 46 49 50 50 50 50 51 50 51 57 63 64 63 63 64 65 66 68 68 69 68 66 64 62 60 59 55 44 36 36 36 36 37 38 38 39 41 42 43 44 44 45 44 43
23 24 25 26 27 27 28 29 30 31 31 30 30 30 31 33 35 36 34 30 24 18 14 12 12 14 15 17 19 19 19 20 22 23 22 22 23 23 22 23 24 27 31 36 41 46 49 49 50 50 50 49 50 55 61 64 63 63 64 64 66 68 69 69 69 67 65 63 61 59 53 44 38 36 35 35 38 39 40 41 43 44 45 45 46 47 48 46
23 25 26 27 27 28 28 29 30 30 30 29 29 30 31 33 35 33 29 24 19 13 10 11 12 12 13 14 15 15 14 15 16 18 19 19 19 20 21 22 23 24 28 31 36 42 46 48 50 51 50 49 49 53 59 64 64 63 63 64 65 68 70 70 69 67 66 65 62 58 52 44 39 35 33 34 37 40 41 42 44 46 48 49 49 49 49 48
24 25 27 28 29 29 30 30 30 30 30 30 30 30 32 34 34 29 24 20 16 10 9 10 10 9 10 11 10 10 10 10 11 12 14 14 15 17 19 20 21 23 26 30 33 37 41 45 48 51 50 47 48 51 56 62 65 64 63 63 65 68 69 69 69 68 68 66 63 58 50 43 40 36 33 33 38 42 43 44 46 48 50 51 51 51 50 50
25 26 28 30 30 30 31 31 31 31 30 30 30 30 32 33 30 25 22 18 13 9 8 9 8 7 7 8 8 7 7 7 7 9 11 12 12 14 16 17 19 22 25 28 32 34 38 42 45 50 50 47 46 50 54 59 64 66 64 63 65 67 68 69 68 68 69 67 63 58 50 42 40 37 34 35 39 42 43 44 45 48 51 52 53 52 50 49
25 27 29 31 31 31 32 32 31 32 31 30 30 30 32 31 26 22 21 17 12 9 9 8 7 7 7 6 7 7 6 6 7 8 9 10 10 12 14 15 18 22 23 26 31 34 36 39 42 47 49 47 45 48 53 57 62 67 66 62 63 66 68 68 68 69 70 67 63 59 49 42 41 37 35 39 42 42 43 43 43 46 49 50 49 48 49 50
Wind_Direction
285 285 285 285 284 284 283 283 282 282 282 282 282 282 282 284 285 286 287 287 287 287 284 277 276 276 271 260 248 248 250 248 241 231 225 227 227 221 217 215 214 215 216 216 215 216 218 213 211 215 219 222 219 211 195 184 190 190 181 177 182 181 173 174 178 177 177 180 184 185 187 189 190 193 196 197 198 201 203 204 205 199 193 187 187 171 150 170
286 286 285 285 284 284 284 283 282 282 281 280 280 279 278 278 279 280 281 281 281 283 283 278 272 270 270 266 254 246 247 248 243 237 234 232 230 226 226 225 220 215 208 206 206 208 213 212 211 213 216 220 220 217 206 192 193 194 187 183 186 183 179 180 179 178 175 173 183 189 191 192 193 198 204 209 211 213 214 217 219 220 215 199 191 184 166 161
287 286 286 285 284 284 284 283 283 282 281 280 279 278 277 276 276 276 275 275 275 275 277 277 273 268 267 266 260 251 246 246 243 241 241 236 231 225 224 226 225 223 216 207 203 204 210 209 207 208 211 215 216 217 212 201 198 200 197 192 191 189 189 188 179 174 167 160 171 182 188 189 192 198 204 213 217 221 224 228 226 226 233 220 203 196 182 162
288 287 287 286 285 284 283 283 282 282 281 280 279 278 278 277 275 274 273 272 271 270 270 271 272 268 265 263 262 257 250 247 242 240 242 238 231 226 221 223 222 223 225 220 210 209 215 215 211 209 209 211 211 214 215 210 202 201 205 202 198 194 196 194 181 176 171 169 174 179 185 187 192 196 197 202 207 213 215 215 221 225 233 232 222 213 199 173
289 288 288 287 286 285 284 283 283 282 281 280 279 278 277 277 276 274 273 272 269 267 265 266 267 266 264 262 260 258 254 250 244 237 239 238 234 229 224 225 223 220 222 224 219 217 219 221 223 222 218 215 213 214 217 217 210 205 207 208 206 199 199 198 186 182 184 184 183 182 187 190 195 196 193 194 193 196 198 197 208 220 227 230 230 228 218 192
290 290 289 288 287 286 285 284 283 282 281 280 279 278 277 276 275 274 273 272 270 267 264 262 263 263 263 260 259 258 254 250 247 240 237 238 237 233 229 228 226 220 218 219 219 221 222 222 225 228 227 224 219 217 220 220 216 212 209 209 210 205 203 204 194 190 191 189 190 191 196 200 201 199 197 200 196 195 198 198 203 210 217 222 222 221 225 217
294 293 292 291 290 288 287 286 284 283 281 280 280 280 279 277 275 274 273 271 270 268 266 263 261 260 260 259 257 256 253 249 248 244 239 239 238 236 233 231 229 222 218 217 214 215 220 223 223 223 225 224 219 220 225 225 222 219 214 211 211 207 206 205 202 201 194 188 191 196 203 209 207 203 204 207 204 205 204 202 206 209 216 224 228 214 216 239
299 298 298 297 295 293 291 289 287 285 283 282 281 280 280 279 277 275 273 271 269 268 267 265 262 259 258 257 256 254 253 248 247 246 243 241 239 236 235 234 230 223 219 217 213 210 209 213 217 218 219 219 217 218 222 225 226 226 222 216 210 208 207 205 207 208 200 193 191 195 203 208 210 210 212 212 208 209 207 205 212 216 221 227 231 212 197 231
302 302 302 301 299 298 296 295 292 290 288 286 283 282 280 279 278 276 274 271 270 269 267 266 263 260 257 255 254 253 252 249 248 248 246 243 240 236 235 236 231 225 223 219 217 214 209 206 209 213 213 213 214 215 218 220 223 227 226 220 213 209 207 206 211 211 208 203 194 195 204 207 212 211 209 212 211 209 205 206 215 220 220 221 226 217 195 204
302 302 301 301 300 298 297 296 294 293 291 289 287 284 281 279 278 276 274 272 271 270 268 266 264 261 258 255 253 253 253 251 250 249 247 245 242 238 235 236 233 228 226 223 218 216 212 207 206 210 210 209 210 211 213 215 220 225 224 220 216 211 207 205 210 212 211 209 202 200 206 211 216 213 207 212 216 213 205 202 210 212 210 215 226 225 202 196
302 302 301 299 299 298 297 295 294 293 291 289 288 286 283 280 277 276 275 273 272 271 270 268 265 262 259 257 254 253 252 250 248 247 246 244 243 240 236 235 235 231 229 225 219 215 213 211 209 210 211 211 211 209 208 210 218 225 223 219 217 212 207 205 208 210 209 208 205 203 205 210 217 216 213 215 216 213 204 198 201 203 206 216 222 222 206 192
304 303 302 300 299 298 297 295 294 293 291 290 288 286 284 281 278 275 274 273 272 270 269 269 267 264 261 258 256 254 252 250 248 246 244 243 243 242 239 236 235 234 232 229 225 220 217 215 214 212 213 214 214 212 207 208 215 223 224 218 215 210 203 203 207 207 207 208 207 206 205 210 219 218 217 217 212 205 198 196 199 203 210 215 212 210 201 188
305 303 302 301 299 298 297 295 294 293 291 290 288 287 284 282 279 276 274 273 271 268 266 266 267 266 263 261 258 255 253 251 249 246 244 244 243 243 241 238 237 235 232 232 231 228 223 221 219 216 214 214 216 216 211 211 215 220 224 220 214 209 200 201 205 203 205 208 207 207 204 209 219 218 218 217 212 206 198 197 199 202 207 203 202 202 194 189
306 304 303 301 299 298 296 295 294 292 290 289 288 286 285 283 280 277 275 273 270 267 265 263 263 264 264 263 261 258 255 252 249 247 244 243 242 242 242 240 238 236 233 232 232 231 227 224 224 223 219 217 219 219 216 217 218 218 224 223 216 209 199 200 203 200 204 206 204 205 202 206 216 217 217 218 218 217 206 197 195 197 201 197 198 200 195 198
306 305 304 302 301 299 297 295 293 291 289 288 286 285 283 282 280 278 276 274 271 268 266 263 260 260 261 262 261 260 257 254 250 246 244 242 241 241 242 241 239 238 236 234 232 232 230 226 226 227 226 223 223 222 220 222 222 221 225 225 219 209 201 204 203 199 203 204 202 200 198 204 215 222 227 228 228 226 213 200 195 191 194 195 197 200 203 210
307 307 306 305 303 301 299 296 293 291 288 286 284 283 282 280 279 277 275 274 272 270 268 266 262 260 258 258 259 259 257 255 252 247 244 241 240 239 240 240 239 238 237 236 234 234 232 228 226 226 226 225 225 225 225 225 225 225 227 228 225 213 205 209 207 201 205 207 204 198 198 204 212 222 233 236 233 228 217 205 195 187 188 195 201 203 207 216
308 308 307 306 304 303 300 297 295 292 289 287 284 282 280 278 277 275 274 272 271 270 269 267 265 262 259 256 256 256 255 254 252 249 245 241 239 239 238 239 239 238 237 237 235 234 235 232 228 226 226 225 225 226 227 229 230 231 232 233 232 221 211 213 211 207 209 211 206 201 201 206 210 216 228 233 231 227 222 208 194 187 187 192 201 204 206 211
309 309 309 308 307 305 302 299 296 293 290 288 285 283 280 278 276 274 272 270 269 268 267 266 265 262 260 257 255 255 254 253 252 251 248 243 240 238 237 237 237 236 235 235 235 234 234 234 231 229 228 227 226 228 231 234 236 237 239 239 240 232 219 215 215 212 212 213 210 205 203 206 208 212 224 231 229 226 223 211 197 189 187 189 196 203 208 212
309 309 310 310 309 307 305 302 300 296 293 290 288 285 282 279 277 274 272 270 268 266 265 264 263 262 260 258 256 255 254 252 251 251 249 247 243 240 237 237 237 237 236 235 235 235 233 233 233 232 232 234 233 234 235 236 236 237 237 237 237 236 228 221 221 218 215 215 213 207 203 206 208 208 218 229 226 222 221 214 202 192 185 184 193 207 214 221
309 309 308 308 308 308 307 305 302 300 298 295 292 289 286 283 279 276 273 270 268 266 265 263 262 262 261 259 257 255 254 253 251 250 249 248 246 243 240 238 237 237 237 236 236 236 234 232 231 233 236 237 235 233 232 230 231 233 234 233 232 232 229 224 224 223 220 218 214 209 205 207 210 207 212 224 225 221 219 213 205 196 186 182 191 206 217 228
308 307 305 304 304 304 304 303 302 301 299 296 294 291 288 285 282 279 276 273 268 266 264 262 261 260 260 259 257 255 254 253 252 250 248 247 246 244 242 240 239 239 238 237 237 236 235 231 227 228 231 232 230 228 226 223 225 230 233 233 233 232 229 225 225 225 224 221 216 212 208 208 212 211 212 218 224 226 220 212 206 198 192 187 189 200 214 228
307 305 303 302 301 301 301 300 300 299 298 296 293 290 287 284 282 279 277 275 272 269 266 263 260 258 257 257 256 255 254 253 252 251 248 247 246 244 243 242 241 240 238 237 236 235 235 232 225 223 228 229 228 226 223 219 218 225 230 231 233 233 231 230 228 227 227 224 219 218 212 207 212 216 213 212 217 227 223 213 206 199 195 191 188 196 210 222
306 305 304 303 302 302 301 300 300 299 298 296 293 290 287 284 281 279 277 275 274 272 269 266 262 259 256 255 254 254 253 252 251 250 248 246 245 245 243 242 241 240 239 238 237 236 236 233 225 225 227 227 228 226 223 219 215 219 224 226 230 232 231 231 231 229 228 225 222 222 216 209 212 215 213 211 214 224 224 215 208 200 195 195 192 192 197 203
308 308 308 306 305 304 304 302 301 300 298 296 292 290 287 285 282 280 278 276 275 273 271 269 265 261 257 254 253 252 251 251 250 248 247 245 244 244 243 241 240 240 240 239 239 237 236 231 223 224 225 224 226 226 224 221 216 217 219 220 224 229 230 231 232 232 231 226 223 226 223 214 213 215 213 212 216 222 225 220 214 206 200 201 197 189 188 192
311 312 311 310 308 307 306 304 303 300 298 295 292 289 288 286 285 284 282 281 280 278 275 272 269 264 259 255 253 251 250 249 249 248 246 244 242 242 241 240 238 238 238 239 239 237 234 228 223 224 224 222 224 225 224 223 218 218 218 215 218 224 228 229 231 233 233 229 223 227 228 218 214 216 213 213 216 219 223 222 219 213 209 208 200 190 188 192
314 314 313 311 310 308 306 305 303 301 298 295 292 291 290 289 289 289 286 285 284 283 281 276 273 270 264 259 254 251 249 248 247 247 246 243 241 240 239 238 237 236 236 236 237 237 233 227 224 225 224 221 222 222 221 222 219 217 216 214 214 218 223 225 228 231 232 230 224 226 230 220 214 216 214 213 214 215 219 219 218 217 215 212 202 192 190 191
317 316 314 311 309 306 305 303 300 297 294 293 293 293 293 292 292 292 290 287 286 285 284 280 278 274 269 263 258 252 250 247 246 246 246 244 241 239 238 236 235 234 233 233 234 234 231 227 225 226 224 222 221 220 220 222 221 216 213 216 215 213 216 220 224 230 232 231 228 228 230 224 215 213 214 213 211 211 214 215 216 217 217 212 202 194 190 188
319 316 313 309 306 303 302 299 296 294 292 291 292 292 292 292 292 291 290 289 288 286 283 280 279 277 273 268 261 255 250 247 245 245 244 243 241 238 236 235 233 231 231 231 233 232 228 225 227 227 225 222 221 221 220 222 221 214 212 218 217 212 212 215 220 226 229 231 229 227 230 227 216 211 214 214 210 209 210 211 214 216 217 211 200 194 191 189
320 316 310 305 303 302 300 297 295 296 295 294 293 292 291 290 289 289 288 287 287 285 281 279 277 277 277 273 265 257 251 248 246 245 242 241 241 238 235 234 232 229 228 229 231 230 224 221 224 226 226 222 219 219 219 220 218 212 213 219 217 214 212 212 216 220 224 229 227 224 229 230 218 206 213 214 208 208 208 209 213 215 215 207 197 195 194 191
319 313 306 300 300 301 300 299 298 298 297 296 296 294 293 292 291 289 288 287 286 283 279 276 274 273 273 271 265 260 253 248 247 246 244 241 240 237 234 233 232 229 228 227 229 228 222 219 221 224 225 222 217 216 217 218 215 211 214 218 216 215 213 212 214 215 219 226 225 221 226 233 221 203 210 213 205 206 208 209 213 215 211 203 196 198 197 193
316 310 304 298 297 298 299 301 303 302 301 301 299 298 296 293 291 290 288 286 284 282 279 274 271 268 267 266 264 263 259 254 250 248 247 245 242 240 236 232 231 230 228 226 226 226 222 218 219 222 224 222 217 215 215 214 212 210 214 217 215 214 214 213 213 214 218 224 224 218 222 232 223 201 207 211 203 204 207 207 213 214 209 201 198 201 201 197
314 309 304 298 294 295 297 301 304 305 304 303 301 299 296 294 291 290 288 286 283 281 278 273 270 266 264 264 264 264 263 261 257 253 251 249 247 244 241 236 232 231 230 226 224 225 222 217 218 220 221 222 219 215 214 213 211 209 212 215 214 212 214 214 213 215 220 225 224 216 218 229 223 198 204 210 203 202 203 204 212 213 207 201 200 201 202 202
312 308 305 300 294 293 297 300 302 304 304 303 301 299 296 294 292 290 288 284 282 279 276 271 268 265 263 263 263 263 263 263 261 259 257 255 253 249 247 243 237 233 231 229 225 224 221 217 216 218 219 220 220 216 214 213 212 211 212 214 214 213 214 214 214 216 221 226 226 218 218 228 223 198 202 209 202 200 200 203 210 212 208 202 202 203 202 203
311 308 307 304 296 292 296 299 301 303 304 302 300 298 296 294 292 290 286 282 279 276 272 268 265 263 261 261 262 264 264 264 263 263 261 258 256 254 251 248 244 238 234 232 228 223 221 217 215 217 218 218 219 218 215 213 213 213 213 215 216 215 216 218 218 219 221 226 227 220 220 230 225 200 198 206 202 198 199 203 207 211 209 205 205 207 205 202
311 310 309 308 299 292 296 301 302 304 303 302 299 297 294 292 290 287 283 278 274 270 267 264 263 262 261 260 261 263 265 266 265 264 263 261 258 256 254 252 249 245 239 236 231 225 221 217 214 217 218 217 218 218 216 213 212 213 214 216 217 215 217 221 223 225 226 228 229 224 223 230 227 202 195 204 203 198 197 201 205 208 209 207 208 210 208 205
312 312 313 311 304 298 299 302 303 304 303 302 300 296 294 291 289 285 279 274 270 266 264 264 263 263 262 260 260 263 265 267 266 264 262 261 260 258 256 253 251 248 244 240 236 229 223 217 214 215 217 217 217 218 217 214 212 212 214 216 216 214 216 221 223 225 227 229 231 229 227 231 230 208 196 204 204 197 195 199 202 205 208 209 210 212 212 210
314 317 317 314 308 304 303 304 305 305 305 303 301 298 295 291 287 283 277 272 269 266 265 264 264 263 262 260 260 261 264 266 266 264 262 259 258 258 257 254 251 249 247 243 239 234 225 219 216 216 216 215 216 218 218 215 213 213 215 216 216 215 217 219 221 223 225 228 231 231 228 230 230 214 200 203 204 198 195 198 200 203 206 209 211 213 215 215
319 320 316 312 309 308 308 309 309 308 307 305 302 300 297 292 288 282 276 272 268 267 266 266 266 264 263 261 260 261 262 264 265 264 262 258 256 255 255 255 252 248 247 244 241 236 228 221 219 217 216 214 215 217 218 216 213 213 215 216 216 217 217 218 219 221 222 226 230 230 228 227 225 216 203 202 204 200 196 198 200 202 206 209 212 215 218 219
322 319 314 313 313 313 314 313 312 311 309 307 304 301 298 294 289 283 278 274 272 270 270 269 268 266 265 264 263 262 262 263 262 262 260 257 254 253 252 252 252 249 246 243 241 237 231 225 221 219 218 215 213 216 218 216 213 212 213 215 216 217 218 219 221 222 223 227 230 230 228 225 221 217 207 201 203 202 199 199 201 203 206 209 213 217 220 222
323 320 319 319 319 318 317 315 314 313 310 308 306 303 300 295 291 286 282 279 277 276 274 273 272 270 269 267 266 264 263 261 259 257 256 254 252 250 248 248 249 249 246 243 241 237 232 228 222 220 220 217 213 215 216 216 214 211 212 214 215 216 217 219 222 223 224 228 231 232 231 225 219 217 211 202 201 202 202 200 201 203 205 208 212 216 219 221
325 326 326 325 322 320 318 317 317 316 313 312 310 306 302 298 293 290 286 284 281 279 277 276 274 273 271 269 268 265 263 260 257 255 252 251 249 247 246 245 245 246 246 243 241 237 233 229 223 220 221 219 214 213 214 216 215 212 212 213 214 215 217 218 220 222 222 225 229 230 230 224 217 216 214 204 199 199 202 202 200 202 205 207 211 214 217 219
329 330 330 327 324 321 320 321 323 321 319 317 314 309 305 300 296 293 290 288 285 282 280 278 276 275 273 271 268 266 263 260 257 254 251 249 248 246 244 242 241 242 243 242 240 236 233 230 225 221 221 219 216 213 213 215 216 214 213 213 213 215 217 218 220 221 222 225 227 229 229 221 212 213 213 205 197 195 198 201 200 202 205 207 211 214 216 219
332 331 332 331 326 325 327 329 328 326 324 321 316 312 307 303 299 296 294 291 288 285 282 279 277 275 273 271 268 265 261 258 255 253 252 250 249 247 244 242 239 238 238 239 238 236 233 230 226 222 220 219 217 216 214 214 215 215 213 212 212 214 217 218 220 221 222 224 227 229 230 220 209 211 211 203 197 194 195 198 199 202 206 208 211 213 216 218
334 335 338 339 335 334 335 335 332 330 327 324 320 315 310 307 304 301 298 294 291 287 284 281 278 274 271 267 263 258 253 249 249 249 250 250 250 248 245 241 238 235 234 234 235 234 231 229 226 222 219 217 216 216 215 214 214 214 213 213 212 213 215 218 220 222 222 224 225 228 230 222 207 209 211 204 198 195 194 195 196 200 205 207 209 211 213 215
338 342 347 349 346 343 342 339 335 333 330 326 322 319 315 314 311 308 304 300 297 293 290 287 282 276 271 264 258 253 246 242 242 244 248 249 246 242 238 234 232 231 230 230 231 231 230 227 225 222 219 215 214 215 214 213 212 213 213 212 212 213 214 216 219 222 223 224 224 227 231 222 206 208 212 205 200 197 195 195 195 196 201 204 206 208 210 212
346 351 354 353 351 347 345 341 338 335 332 328 326 322 320 318 315 312 308 305 302 300 297 290 282 277 276 269 263 261 254 248 245 245 249 248 237 228 224 223 224 226 226 226 227 228 228 226 224 223 220 216 214 214 214 213 212 212 212 212 212 213 213 215 218 220 222 224 224 227 230 222 207 208 211 207 205 202 197 196 195 195 198 201 204 206 208 209
353 357 358 355 352 348 344 341 339 337 334 331 328 325 323 320 317 314 311 309 308 306 299 287 278 276 274 269 268 269 264 256 251 248 250 246 230 219 218 216 216 220 222 223 224 225 226 225 224 223 221 217 214 213 214 214 212 211 212 212 212 213 213 214 217 219 221 223 224 226 228 221 211 209 210 209 210 207 201 198 196 195 196 199 202 205 207 207
357 359 1 357 353 350 346 342 341 339 336 334 331 328 326 324 320 318 316 317 316 311 300 291 287 280 276 273 272 273 269 260 254 250 248 241 227 219 218 216 214 215 218 221 223 224 224 224 224 223 222 218 214 212 213 213 212 211 211 211 212 213 213 214 216 218 221 223 224 225 225 220 214 212 210 211 213 210 206 202 197 195 196 198 201 203 204 205
359 360 1 359 355 353 348 345 344 342 341 339 335 333 330 327 324 324 325 326 323 313 301 301 299 290 285 282 276 272 267 258 251 248 243 235 225 221 220 219 218 216 217 219 221 223 224 223 223 224 222 218 215 212 212 212 212 211 210 210 212 213 213 214 215 217 220 223 223 224 223 218 215 213 210 212 216 213 208 203 198 196 197 198 200 202 203 203
1 1 1 0 358 355 352 348 348 347 346 344 341 337 334 330 328 331 333 331 327 318 304 305 311 306 294 288 282 275 268 258 248 246 245 238 230 226 222 220 221 220 219 220 221 223 224 223 224 224 223 219 216 213 211 212 212 211 209 209 211 212 213 213 215 216 220 222 223 223 221 216 214 213 209 210 215 214 210 205 200 197 198 199 201 202 203 203
3 3 2 2 360 358 355 353 352 352 350 348 346 341 337 334 334 337 338 335 331 326 312 305 308 305 291 285 285 279 269 261 251 247 250 247 240 236 229 223 223 223 221 222 222 222 223 224 224 225 223 219 217 214 211 211 211 211 209 208 210 212 213 213 214 216 219 221 222 222 218 212 211 212 208 207 211 213 211 207 202 199 199 201 204 205 204 205
5 6 4 3 1 360 359 357 356 356 354 353 350 345 341 340 340 340 341 339 337 331 319 311 305 298 294 294 290 282 275 270 262 257 258 254 245 241 238 231 227 225 223 225 224 222 222 223 225 227 225 220 218 217 212 210 211 211 208 207 209 211 212 213 214 216 218 220 221 220 215 208 208 208 206 207 209 211 210 207 203 202 202 204 206 207 207 209